Weather History for Glens Falls, NY

Change the Weather History Date:

Friday, August 9, 2013

  Actual Average Record
Temperature  
Mean Temperature 73 °F 68 °F  
Max Temperature 79 °F 80 °F 98 °F (1949)
Min Temperature 67 °F 56 °F 43 °F (2004)
Degree Days  
Heating Degree Days 0 1  
Month to date heating degree days 9 9  
Since 1 June heating degree days 103 120  
Since 1 July heating degree days 14 30  
Cooling Degree Days 8 4  
Month to date cooling degree days 31 36  
Year to date cooling degree days 427 256  
Since 1 June cooling degree days 394 244  
Growing Degree Days 24 (Base 50)    
Moisture  
Dew Point 71 °F    
Average Humidity 90    
Maximum Humidity 100    
Minimum Humidity 79    
Precipitation  
Precipitation 0.24 in 0.13 in 1.16 in (1991)
Month to date precipitation 0.87 1.18  
Year to date precipitation 23.22 23.31  
Sea Level Pressure  
Sea Level Pressure 29.85 in    
Wind  
Wind Speed 4 mph (SSW)    
Max Wind Speed 10 mph    
Max Gust Speed 14 mph    
Visibility 6 miles    
Events Rain    
T = Trace of Precipitation, MM = Missing Value Source: NWS Daily Summary

Daily Weather History Graph

Daily Weather History Graph

Search for Another Location

Airport:

Trip Planner

Search our weather history database for the weather conditions in past years. The results will help you decide how hot, cold, wet, or windy it might be!

Date:

Astronomy

Aug. 09, 2013 Rise Set
Actual Time 5:53 AM EDT 8:05 PM EDT
Civil Twilight 5:21 AM EDT 8:37 PM EDT
Nautical Twilight 4:42 AM EDT 9:15 PM EDT
Astronomical Twilight 3:59 AM EDT 9:58 PM EDT
Moon 8:43 AM EDT (8/9) 9:06 PM EDT (8/9)
Length of Visible Light 15h 15m
Length of Day
14h 12m
Waxing Crescent, 7% of the Moon is Illuminated
Aug 9
Waxing Crescent
Aug 14
First Quarter
Aug 20
Full
Aug 28
Last Quarter
Sep 5
New

Hourly Weather History & Observations

Time (EDT) Temp. Dew Point Humidity Pressure Visibility Wind Dir Wind Speed Gust Speed Precip Events Conditions
12:13 AM 71.6 °F 71.6 °F 100% 29.95 in 4.0 mi Calm Calm - N/A   Mostly Cloudy
12:33 AM 71.6 °F 69.8 °F 94% 29.94 in 5.0 mi South 4.6 mph - N/A   Mostly Cloudy
12:53 AM 73.0 °F 71.1 °F 93% 29.93 in 6.0 mi SSW 4.6 mph - N/A   Overcast
1:53 AM 73.0 °F 71.1 °F 93% 29.92 in 6.0 mi SW 4.6 mph - 0.00 in   Overcast
2:25 AM 73.4 °F 71.6 °F 94% 29.92 in 6.0 mi SSW 4.6 mph - N/A   Mostly Cloudy
2:42 AM 71.6 °F 71.6 °F 100% 29.92 in 6.0 mi SSW 4.6 mph - N/A   Overcast
2:53 AM 73.0 °F 71.1 °F 93% 29.91 in 6.0 mi SSW 5.8 mph - N/A   Overcast
3:53 AM 73.0 °F 71.1 °F 93% 29.91 in 6.0 mi SW 3.5 mph - N/A   Overcast
4:31 AM 71.6 °F 71.6 °F 100% 29.91 in 3.0 mi SSW 5.8 mph - 0.02 in Rain Light Rain
4:53 AM 72.0 °F 71.1 °F 97% 29.89 in 3.0 mi Calm Calm - 0.04 in Rain Light Rain
5:49 AM 71.6 °F 71.6 °F 100% 29.90 in 4.0 mi Calm Calm - 0.02 in   Mostly Cloudy
5:53 AM 72.0 °F 71.1 °F 97% 29.89 in 4.0 mi Calm Calm - 0.02 in   Mostly Cloudy
6:01 AM 71.6 °F 71.6 °F 100% 29.90 in 4.0 mi Calm Calm - 0.00 in Rain Light Rain
6:43 AM 71.6 °F 71.6 °F 100% 29.89 in 2.5 mi Calm Calm - 0.00 in   Overcast
6:53 AM 72.0 °F 71.1 °F 97% 29.89 in 2.5 mi South 4.6 mph - 0.00 in   Overcast
7:05 AM 71.6 °F 71.6 °F 100% 29.89 in 3.0 mi Calm Calm - N/A   Overcast
7:49 AM 71.6 °F 71.6 °F 100% 29.89 in 1.5 mi Calm Calm - 0.03 in Rain Rain
7:50 AM 72.0 °F 71.1 °F 97% 29.88 in 1.2 mi Calm Calm - 0.03 in Rain Rain
8:01 AM 73.4 °F 71.6 °F 94% 29.88 in 3.0 mi SSW 6.9 mph - 0.01 in Rain Light Rain
8:32 AM 73.4 °F 71.6 °F 94% 29.87 in 5.0 mi South 4.6 mph - 0.01 in Rain Light Rain
8:53 AM 73.0 °F 71.1 °F 93% 29.86 in 8.0 mi South 8.1 mph - 0.02 in   Overcast
9:09 AM 73.4 °F 71.6 °F 94% 29.86 in 2.0 mi SSW 6.9 mph - 0.02 in Rain Light Rain
9:17 AM 73.4 °F 71.6 °F 94% 29.86 in 5.0 mi South 5.8 mph - 0.02 in Rain Light Rain
9:35 AM 73.4 °F 71.6 °F 94% 29.86 in 6.0 mi South 4.6 mph - 0.03 in Rain Light Rain
9:53 AM 73.0 °F 71.1 °F 93% 29.85 in 10.0 mi South 3.5 mph - 0.03 in Rain Light Rain
10:29 AM 73.4 °F 71.6 °F 94% 29.85 in 2.5 mi South 4.6 mph - 0.03 in Rain Light Rain
10:41 AM 73.4 °F 71.6 °F 94% 29.84 in 3.0 mi SSW 5.8 mph - 0.04 in Rain Light Rain
10:53 AM 73.0 °F 72.0 °F 96% 29.83 in 4.0 mi South 4.6 mph - 0.05 in Rain Light Rain
11:53 AM 75.0 °F 72.0 °F 90% 29.81 in 10.0 mi South 6.9 mph - 0.00 in   Mostly Cloudy
12:50 PM 73.4 °F 71.6 °F 94% 29.82 in 8.0 mi South 6.9 mph - 0.00 in Rain Light Rain
12:53 PM 73.9 °F 71.1 °F 91% 29.81 in 6.0 mi South 6.9 mph - 0.01 in Rain Light Rain
1:27 PM 75.2 °F 71.6 °F 89% 29.81 in 8.0 mi South 4.6 mph - 0.02 in Rain Light Rain
1:44 PM 75.2 °F 71.6 °F 89% 29.81 in 9.0 mi SSW 5.8 mph - 0.02 in Rain Light Rain
1:53 PM 75.0 °F 71.1 °F 87% 29.80 in 9.0 mi SSW 3.5 mph - 0.02 in Rain Light Rain
2:53 PM 75.0 °F 71.1 °F 87% 29.80 in 2.5 mi Calm Calm - 0.01 in Rain Light Rain
2:57 PM 75.2 °F 71.6 °F 89% 29.81 in 4.0 mi Calm Calm - 0.00 in Rain Light Rain
3:53 PM 75.0 °F 73.0 °F 94% 29.77 in 10.0 mi WSW 3.5 mph - 0.01 in   Partly Cloudy
4:09 PM 75.2 °F 73.4 °F 94% 29.78 in 9.0 mi Calm Calm - N/A   Scattered Clouds
4:53 PM 77.0 °F 73.0 °F 88% 29.78 in 10.0 mi Calm Calm - N/A   Clear
5:53 PM 78.1 °F 71.1 °F 79% 29.77 in 10.0 mi Calm Calm - N/A   Clear
6:53 PM 77.0 °F 73.0 °F 88% 29.77 in 10.0 mi SSE 3.5 mph - N/A   Scattered Clouds
7:53 PM 75.0 °F 72.0 °F 90% 29.77 in 10.0 mi South 6.9 mph - N/A   Partly Cloudy
8:53 PM 73.9 °F 72.0 °F 93% 29.79 in 10.0 mi South 4.6 mph - N/A   Mostly Cloudy
9:44 PM 73.4 °F 71.6 °F 94% 29.81 in 10.0 mi South 3.5 mph - N/A   Mostly Cloudy
9:53 PM 73.0 °F 71.1 °F 93% 29.80 in 10.0 mi South 3.5 mph - N/A   Scattered Clouds
10:37 PM 71.6 °F 71.6 °F 100% 29.81 in 9.0 mi SSE 3.5 mph - N/A   Mostly Cloudy
10:53 PM 72.0 °F 70.0 °F 93% 29.81 in 10.0 mi NW 4.6 mph - N/A   Mostly Cloudy
11:07 PM 71.6 °F 71.6 °F 100% 29.82 in 9.0 mi Calm Calm - N/A   Scattered Clouds
11:53 PM 69.1 °F 68.0 °F 96% 29.83 in 10.0 mi Calm Calm - N/A   Clear